,,Stat6,,Stat2,,Stat8,,Stat9,,Stat10,,Wind1,,Wind1,
time,status,PA1M_AVG,status,PR1M_SUM,status,RH1M_AVG,status,SR1M_AVG,status,TA1M_AVG,status,W1dAve1m,status,W1sAve1m,
2006-03-25, 00:00:00,VALID,916.234,VALID,0,VALID,100,VALID,0.0169808,VALID,19.7246,VALID,199,VALID,0.579427,
2006-03-25, 00:01:00,VALID,916.213,VALID,0,VALID,100,VALID,0,VALID,19.5279,VALID,84,VALID,1.15591,
2006-03-25, 00:02:00,VALID,916.212,VALID,0,VALID,100,VALID,0,VALID,19.534,VALID,14,VALID,1.65007,
2006-03-25, 00:03:00,VALID,916.206,VALID,0,VALID,100,VALID,0,VALID,19.1905,VALID,16,VALID,2.31562,
2006-03-25, 00:04:00,VALID,916.205,VALID,0,VALID,100,VALID,0.0169808,VALID,19.1638,VALID,20,VALID,1.73637,
2006-03-25, 00:05:00,VALID,916.226,VALID,0,VALID,100,VALID,0,VALID,19.4215,VALID,358,VALID,0.847756,
2006-03-25, 00:06:00,VALID,916.192,VALID,0,VALID,100,VALID,-0.0339617,VALID,19.835,VALID,336,VALID,1.32887,
2006-03-25, 00:07:00,VALID,916.16,VALID,0,VALID,100,VALID,-0.0849042,VALID,19.2547,VALID,39,VALID,1.67832,
2006-03-25, 00:08:00,VALID,916.158,VALID,0,VALID,100,VALID,0.0169808,VALID,19.128,VALID,105,VALID,0.910866,
2006-03-25, 00:09:00,VALID,916.185,VALID,0,VALID,100,VALID,-0.516981,VALID,18.8872,VALID,184,VALID,0.524368,
2006-03-25, 00:10:00,VALID,916.158,VALID,0,VALID,100,VALID,-0.0169808,VALID,19.5713,VALID,95,VALID,0.918146,
2006-03-25, 00:11:00,VALID,916.126,VALID,0,VALID,100,VALID,0.0169808,VALID,18.5809,VALID,82,VALID,0.892113,
2006-03-25, 00:12:00,VALID,916.109,VALID,0,VALID,100,VALID,0,VALID,19.4193,VALID,22,VALID,2.18848,
2006-03-25, 00:13:00,VALID,916.073,VALID,0,VALID,100,VALID,0,VALID,19.7489,VALID,47,VALID,0.84266,
2006-03-25, 00:14:00,VALID,916.107,VALID,0,VALID,100,VALID,0,VALID,19.7565,VALID,62,VALID,0.719494,
2006-03-25, 00:15:00,VALID,916.08,VALID,0,VALID,100,VALID,0.0169808,VALID,19.624,VALID,178,VALID,0.696911,
2006-03-25, 00:16:00,VALID,916.017,VALID,0,VALID,100,VALID,0.0169808,VALID,19.979,VALID,22,VALID,1.23074,
2006-03-25, 00:17:00,VALID,915.974,VALID,0,VALID,100,VALID,-0.0169808,VALID,20.8578,VALID,3,VALID,1.45827,
2006-03-25, 00:18:00,VALID,915.937,VALID,0,VALID,100,VALID,-0.0849042,VALID,19.7214,VALID,35,VALID,1.86367,
2006-03-25, 00:19:00,VALID,915.929,VALID,0,VALID,100,VALID,-0.0679233,VALID,19.2984,VALID,318,VALID,0.985465,
2006-03-25, 00:20:00,VALID,915.88,VALID,0,VALID,100,VALID,-0.0849042,VALID,19.3984,VALID,23,VALID,2.41973,
2006-03-25, 00:21:00,VALID,915.87,VALID,0,VALID,100,VALID,-0.0339617,VALID,20.4891,VALID,75,VALID,1.46801,
2006-03-25, 00:22:00,VALID,915.844,VALID,0,VALID,100,VALID,0.0169808,VALID,19.4705,VALID,9,VALID,2.45476,
2006-03-25, 00:23:00,VALID,915.836,VALID,0,VALID,100,VALID,0,VALID,18.0942,VALID,3,VALID,1.87028,
2006-03-25, 00:24:00,VALID,915.821,VALID,0,VALID,100,VALID,-0.516981,VALID,19.7381,VALID,6,VALID,2.4494,
2006-03-25, 00:25:00,VALID,915.812,VALID,0,VALID,100,VALID,-0.0849042,VALID,20.6537,VALID,7,VALID,1.50521,
2006-03-25, 00:26:00,VALID,915.822,VALID,0,VALID,100,VALID,-0.0849042,VALID,19.4557,VALID,346,VALID,1.20675,
2006-03-25, 00:27:00,VALID,915.783,VALID,0,VALID,100,VALID,-0.0169808,VALID,19.5385,VALID,6,VALID,1.35,
2006-03-25, 00:28:00,VALID,915.77,VALID,0,VALID,100,VALID,-0.0679233,VALID,20.6617,VALID,2,VALID,1.41466,
2006-03-25, 00:29:00,VALID,915.773,VALID,0,VALID,100,VALID,-0.0849042,VALID,18.9013,VALID,14,VALID,1.32832,
2006-03-25, 00:30:00,VALID,915.751,VALID,0,VALID,100,VALID,-0.0849042,VALID,20.2185,VALID,310,VALID,0.619004,
2006-03-25, 00:31:00,VALID,915.733,VALID,0,VALID,100,VALID,-0.101885,VALID,19.36,VALID,11,VALID,0.554492,
2006-03-25, 00:32:00,VALID,915.725,VALID,0,VALID,100,VALID,0,VALID,19.7144,VALID,359,VALID,1.21966,
2006-03-25, 00:33:00,VALID,915.691,VALID,0,VALID,100,VALID,0.0169808,VALID,19.1487,VALID,29,VALID,1.55344,
2006-03-25, 00:34:00,VALID,915.706,VALID,0,VALID,100,VALID,-0.0849042,VALID,19.1258,VALID,24,VALID,1.72713,
2006-03-25, 00:35:00,VALID,915.678,VALID,0,VALID,100,VALID,0,VALID,20.6773,VALID,45,VALID,0.931402,
2006-03-25, 00:36:00,VALID,915.638,VALID,0,VALID,100,VALID,0,VALID,18.9911,VALID,2,VALID,1.34747,
2006-03-25, 00:37:00,VALID,915.611,VALID,0,VALID,100,VALID,0,VALID,20.0574,VALID,310,VALID,0.545922,
2006-03-25, 00:38:00,VALID,915.533,VALID,0,VALID,100,VALID,-0.0509425,VALID,20.4359,VALID,353,VALID,1.37589,
2006-03-25, 00:39:00,VALID,915.528,VALID,0,VALID,100,VALID,-0.533962,VALID,19.391,VALID,18,VALID,1.45549,
2006-03-25, 00:40:00,VALID,915.507,VALID,0,VALID,100,VALID,-0.0169808,VALID,20.6316,VALID,22,VALID,2.04167,
2006-03-25, 00:41:00,VALID,915.482,VALID,0,VALID,100,VALID,-0.0169808,VALID,19.5316,VALID,24,VALID,2.66254,
2006-03-25, 00:42:00,VALID,915.492,VALID,0,VALID,100,VALID,0,VALID,19.2487,VALID,19,VALID,1.9538,
2006-03-25, 00:43:00,VALID,915.488,VALID,0,VALID,100,VALID,-0.0339617,VALID,19.5328,VALID,30,VALID,2.02572,
2006-03-25, 00:44:00,VALID,915.445,VALID,0,VALID,100,VALID,-0.0339617,VALID,19.8652,VALID,14,VALID,2.9054,
2006-03-25, 00:45:00,VALID,915.409,VALID,0,VALID,100,VALID,-0.0339617,VALID,19.0485,VALID,24,VALID,3.20928,
2006-03-25, 00:46:00,VALID,915.42,VALID,0,VALID,100,VALID,0,VALID,19.4436,VALID,31,VALID,2.31574,
2006-03-25, 00:47:00,VALID,915.416,VALID,0,VALID,100,VALID,-0.0169808,VALID,18.8568,VALID,359,VALID,1.48903,
2006-03-25, 00:48:00,VALID,915.419,VALID,0,VALID,100,VALID,0,VALID,19.6003,VALID,17,VALID,0.800195,
2006-03-25, 00:49:00,VALID,915.324,VALID,0,VALID,100,VALID,-0.0169808,VALID,20.0279,VALID,26,VALID,1.95141,
2006-03-25, 00:50:00,VALID,915.358,VALID,0,VALID,100,VALID,0,VALID,20.0477,VALID,300,VALID,1.28925,
2006-03-25, 00:51:00,VALID,915.331,VALID,0,VALID,100,VALID,-0.0169808,VALID,20.2026,VALID,48,VALID,1.34766,
2006-03-25, 00:52:00,VALID,915.347,VALID,0,VALID,100,VALID,0,VALID,19.1486,VALID,20,VALID,1.63853,
2006-03-25, 00:53:00,VALID,915.32,VALID,0,VALID,100,VALID,-0.0169808,VALID,19.3844,VALID,22,VALID,2.28815,
2006-03-25, 00:54:00,VALID,915.3,VALID,0,VALID,100,VALID,-0.683648,VALID,18.5873,VALID,25,VALID,1.9945,
2006-03-25, 00:55:00,VALID,915.301,VALID,0,VALID,100,VALID,-0.850314,VALID,19.0005,VALID,30,VALID,1.6808,
2006-03-25, 00:56:00,VALID,915.31,VALID,0,VALID,100,VALID,-0.0679233,VALID,20.1666,VALID,22,VALID,0.242898,
2006-03-25, 00:57:00,VALID,915.308,VALID,0,VALID,100,VALID,0.0169808,VALID,19.8911,VALID,26,VALID,1.69308,
2006-03-25, 00:58:00,VALID,915.314,VALID,0,VALID,100,VALID,-0.0339617,VALID,19.916,VALID,156,VALID,0.506373,
2006-03-25, 00:59:00,VALID,915.271,VALID,0,VALID,100,VALID,-0.0509425,VALID,19.595,VALID,35,VALID,1.52865,
2006-03-25, 01:00:00,VALID,915.269,VALID,0,VALID,100,VALID,0.0169808,VALID,19.1306,VALID,4,VALID,1.28036,
2006-03-25, 01:01:00,VALID,915.272,VALID,0,VALID,100,VALID,-0.0509425,VALID,19.2075,VALID,14,VALID,1.83079,
2006-03-25, 01:02:00,VALID,915.277,VALID,0,VALID,100,VALID,-0.0509425,VALID,20.1189,VALID,69,VALID,1.14258,
2006-03-25, 01:03:00,VALID,915.245,VALID,0,VALID,100,VALID,-0.0849042,VALID,21.2961,VALID,76,VALID,1.10556,
2006-03-25, 01:04:00,VALID,915.248,VALID,0,VALID,100,VALID,-0.0849042,VALID,19.3624,VALID,357,VALID,1.51414,
2006-03-25, 01:05:00,VALID,915.231,VALID,0,VALID,100,VALID,-0.0849042,VALID,19.385,VALID,14,VALID,2.14471,
2006-03-25, 01:06:00,VALID,915.262,VALID,0,VALID,100,VALID,-0.0849042,VALID,19.3704,VALID,22,VALID,1.63887,
2006-03-25, 01:07:00,VALID,915.231,VALID,0,VALID,100,VALID,-0.0849042,VALID,20.3493,VALID,347,VALID,0.941211,
2006-03-25, 01:08:00,VALID,915.211,VALID,0,VALID,100,VALID,-0.0679233,VALID,18.4281,VALID,16,VALID,2.27397,
2006-03-25, 01:09:00,VALID,915.233,VALID,0,VALID,100,VALID,-0.683648,VALID,19.8309,VALID,3,VALID,1.58125,
2006-03-25, 01:10:00,VALID,915.245,VALID,0,VALID,100,VALID,-1,VALID,19.9534,VALID,98,VALID,0.493555,
2006-03-25, 01:11:00,VALID,915.23,VALID,0,VALID,100,VALID,-0.833333,VALID,19.2399,VALID,95,VALID,1.03785,
2006-03-25, 01:12:00,VALID,915.29,VALID,0,VALID,100,VALID,-0.0849042,VALID,20.2219,VALID,39,VALID,1.08158,
2006-03-25, 01:13:00,VALID,915.317,VALID,0,VALID,100,VALID,-0.0679233,VALID,19.838,VALID,23,VALID,1.65762,
2006-03-25, 01:14:00,VALID,915.268,VALID,0,VALID,100,VALID,-0.0849042,VALID,19.0583,VALID,19,VALID,2.58724,
2006-03-25, 01:15:00,VALID,915.292,VALID,0.2,VALID,100,VALID,-0.0509425,VALID,19.4177,VALID,14,VALID,2.1424,
2006-03-25, 01:16:00,VALID,915.297,VALID,0,VALID,100,VALID,-0.0849042,VALID,19.6665,VALID,5,VALID,0.806212,
2006-03-25, 01:17:00,VALID,915.311,VALID,0,VALID,100,VALID,-0.0339617,VALID,19.4437,VALID,224,VALID,0.708394,
2006-03-25, 01:18:00,VALID,915.305,VALID,0,VALID,100,VALID,-0.0339617,VALID,19.5491,VALID,17,VALID,1.59141,
2006-03-25, 01:19:00,VALID,915.352,VALID,0,VALID,100,VALID,-0.0679233,VALID,19.9804,VALID,12,VALID,0.843928,
2006-03-25, 01:20:00,VALID,915.315,VALID,0,VALID,100,VALID,-0.0509425,VALID,20.01,VALID,20,VALID,1.59319,
2006-03-25, 01:21:00,VALID,915.331,VALID,0,VALID,100,VALID,-0.0169808,VALID,19.7175,VALID,8,VALID,1.92035,
2006-03-25, 01:22:00,VALID,915.358,VALID,0,VALID,100,VALID,-0.0509425,VALID,19.6515,VALID,203,VALID,0.914757,
2006-03-25, 01:23:00,VALID,915.38,VALID,0,VALID,100,VALID,-0.0339617,VALID,20.0033,VALID,129,VALID,0.973292,
2006-03-25, 01:24:00,VALID,915.374,VALID,0,VALID,100,VALID,-0.666667,VALID,19.5271,VALID,41,VALID,1.64348,
2006-03-25, 01:25:00,VALID,915.383,VALID,0,VALID,100,VALID,-1,VALID,19.3953,VALID,55,VALID,0.782012,
2006-03-25, 01:26:00,VALID,915.357,VALID,0,VALID,100,VALID,-0.833333,VALID,19.8597,VALID,27,VALID,1.68229,
2006-03-25, 01:27:00,VALID,915.373,VALID,0.2,VALID,100,VALID,-0.0169808,VALID,18.7347,VALID,142,VALID,0.73165,
2006-03-25, 01:28:00,VALID,915.357,VALID,0,VALID,100,VALID,-0.0849042,VALID,19.0326,VALID,15,VALID,1.83296,
2006-03-25, 01:29:00,VALID,915.334,VALID,0,VALID,100,VALID,-0.0339617,VALID,20.1587,VALID,11,VALID,0.48457,
2006-03-25, 01:30:00,VALID,915.329,VALID,0,VALID,100,VALID,-0.135847,VALID,18.7279,VALID,327,VALID,1.11272,
2006-03-25, 01:31:00,VALID,915.34,VALID,0,VALID,100,VALID,-0.135847,VALID,19.4622,VALID,25,VALID,1.90391,
2006-03-25, 01:32:00,VALID,915.369,VALID,0,VALID,100,VALID,-0.0509425,VALID,19.7327,VALID,10,VALID,0.974306,
2006-03-25, 01:33:00,VALID,915.355,VALID,0,VALID,100,VALID,-0.0509425,VALID,19.8047,VALID,24,VALID,1.80659,
2006-03-25, 01:34:00,VALID,915.331,VALID,0,VALID,100,VALID,-0.0849042,VALID,19.9783,VALID,29,VALID,1.36337,
2006-03-25, 01:35:00,VALID,915.321,VALID,0,VALID,100,VALID,-0.0169808,VALID,19.9799,VALID,358,VALID,1.03163,
2006-03-25, 01:36:00,VALID,915.285,VALID,0,VALID,100,VALID,-0.0679233,VALID,19.5484,VALID,22,VALID,1.69113,
2006-03-25, 01:37:00,VALID,915.281,VALID,0,VALID,100,VALID,-0.0849042,VALID,20.2298,VALID,16,VALID,1.73522,
2006-03-25, 01:38:00,VALID,915.315,VALID,0,VALID,100,VALID,-0.0339617,VALID,18.6339,VALID,358,VALID,1.82649,
2006-03-25, 01:39:00,VALID,915.323,VALID,0,VALID,100,VALID,-0.683648,VALID,19.1765,VALID,13,VALID,1.70799,
2006-03-25, 01:40:00,VALID,915.309,VALID,0,VALID,100,VALID,-1,VALID,19.5627,VALID,219,VALID,1.50057,
2006-03-25, 01:41:00,VALID,915.328,VALID,0,VALID,100,VALID,-1,VALID,19.4031,VALID,223,VALID,0.899346,
2006-03-25, 01:42:00,VALID,915.322,VALID,0,VALID,100,VALID,-0.833333,VALID,19.4451,VALID,299,VALID,0.912016,
2006-03-25, 01:43:00,VALID,915.281,VALID,0,VALID,100,VALID,0,VALID,19.6739,VALID,1,VALID,1.01637,
2006-03-25, 01:44:00,VALID,915.261,VALID,0,VALID,100,VALID,-0.0509425,VALID,20.1714,VALID,35,VALID,0.783381,
2006-03-25, 01:45:00,VALID,915.261,VALID,0,VALID,100,VALID,-0.0169808,VALID,20.0335,VALID,296,VALID,0.744368,
2006-03-25, 01:46:00,VALID,915.251,VALID,0,VALID,100,VALID,-0.0339617,VALID,19.8636,VALID,307,VALID,0.640997,
2006-03-25, 01:47:00,VALID,915.253,VALID,0,VALID,100,VALID,-0.0169808,VALID,19.7339,VALID,358,VALID,0.994284,
2006-03-25, 01:48:00,VALID,915.253,VALID,0,VALID,100,VALID,0,VALID,19.7256,VALID,36,VALID,1.37918,
2006-03-25, 01:49:00,VALID,915.264,VALID,0,VALID,100,VALID,-0.0169808,VALID,20.0508,VALID,22,VALID,0.930831,
2006-03-25, 01:50:00,VALID,915.269,VALID,0,VALID,100,VALID,-0.118866,VALID,19.6845,VALID,51,VALID,0.301314,
2006-03-25, 01:51:00,VALID,915.205,VALID,0,VALID,100,VALID,-0.118866,VALID,19.5095,VALID,38,VALID,1.14499,
2006-03-25, 01:52:00,VALID,915.225,VALID,0,VALID,100,VALID,-0.0849042,VALID,19.9426,VALID,324,VALID,0.670603,
2006-03-25, 01:53:00,VALID,915.213,VALID,0,VALID,100,VALID,-0.0169808,VALID,19.8287,VALID,134,VALID,1.01381,
2006-03-25, 01:54:00,VALID,915.202,VALID,0,VALID,100,VALID,-0.5,VALID,19.7806,VALID,18,VALID,1.71538,
2006-03-25, 01:55:00,VALID,915.203,VALID,0,VALID,100,VALID,0,VALID,19.9524,VALID,34,VALID,0.495384,
2006-03-25, 01:56:00,VALID,915.198,VALID,0,VALID,100,VALID,0,VALID,19.474,VALID,114,VALID,0.0323933,
2006-03-25, 01:57:00,VALID,915.163,VALID,0,VALID,100,VALID,-0.0169808,VALID,19.6723,VALID,360,VALID,0.876953,
2006-03-25, 01:58:00,VALID,915.157,VALID,0,VALID,100,VALID,0,VALID,19.5891,VALID,19,VALID,1.47729,
2006-03-25, 01:59:00,VALID,915.138,VALID,0,VALID,100,VALID,0,VALID,19.883,VALID,24,VALID,2.03688,
2006-03-25, 02:00:00,VALID,915.123,VALID,0,VALID,100,VALID,-0.0169808,VALID,19.5326,VALID,24,VALID,1.21523,
2006-03-25, 02:01:00,VALID,915.131,VALID,0,VALID,100,VALID,0,VALID,18.8739,VALID,21,VALID,0.473958,
2006-03-25, 02:02:00,VALID,915.111,VALID,0,VALID,100,VALID,0,VALID,19.8371,VALID,29,VALID,1.27325,
2006-03-25, 02:03:00,VALID,915.097,VALID,0,VALID,100,VALID,0,VALID,18.9744,VALID,352,VALID,1.29251,
2006-03-25, 02:04:00,VALID,915.095,VALID,0,VALID,100,VALID,-0.0169808,VALID,20.234,VALID,325,VALID,0.948583,
2006-03-25, 02:05:00,VALID,915.075,VALID,0,VALID,100,VALID,-0.101885,VALID,20.4049,VALID,35,VALID,0.346058,
2006-03-25, 02:06:00,VALID,915.075,VALID,0,VALID,100,VALID,-0.101885,VALID,20.3436,VALID,344,VALID,0.736737,
2006-03-25, 02:07:00,VALID,915.108,VALID,0,VALID,100,VALID,-0.101885,VALID,19.4254,VALID,194,VALID,0.756925,
2006-03-25, 02:08:00,VALID,915.07,VALID,0,VALID,100,VALID,-0.0169808,VALID,19.1683,VALID,68,VALID,0.670541,
2006-03-25, 02:09:00,VALID,915.102,VALID,0,VALID,100,VALID,-0.666667,VALID,18.5079,VALID,285,VALID,0.716332,
2006-03-25, 02:10:00,VALID,915.109,VALID,0,VALID,100,VALID,-1,VALID,20.2582,VALID,193,VALID,0.372142,
2006-03-25, 02:11:00,VALID,915.085,VALID,0,VALID,100,VALID,-1,VALID,19.9431,VALID,27,VALID,1.3346,
2006-03-25, 02:12:00,VALID,915.063,VALID,0,VALID,100,VALID,-1,VALID,18.9221,VALID,20,VALID,0.940518,
2006-03-25, 02:13:00,VALID,915.051,VALID,0,VALID,100,VALID,-1,VALID,19.4651,VALID,64,VALID,0.560122,
2006-03-25, 02:14:00,VALID,915.038,VALID,0,VALID,100,VALID,-1,VALID,18.3388,VALID,56,VALID,0.690662,
2006-03-25, 02:15:00,VALID,915.05,VALID,0,VALID,100,VALID,-0.850314,VALID,18.9347,VALID,17,VALID,1.37767,
2006-03-25, 02:16:00,VALID,915.039,VALID,0,VALID,100,VALID,-0.0509425,VALID,18.9771,VALID,25,VALID,1.75618,
2006-03-25, 02:17:00,VALID,915.021,VALID,0,VALID,100,VALID,0.0169808,VALID,20.0427,VALID,336,VALID,0.839453,
2006-03-25, 02:18:00,VALID,915.009,VALID,0,VALID,100,VALID,0.0169808,VALID,19.9023,VALID,8,VALID,0.961133,
2006-03-25, 02:19:00,VALID,915.014,VALID,0,VALID,100,VALID,0.0339617,VALID,19.6187,VALID,248,VALID,0.546875,
2006-03-25, 02:20:00,VALID,915.018,VALID,0,VALID,100,VALID,0,VALID,18.9633,VALID,303,VALID,0.449886,
2006-03-25, 02:21:00,VALID,915.012,VALID,0,VALID,100,VALID,0.0169808,VALID,19.147,VALID,2,VALID,0.352242,
2006-03-25, 02:22:00,VALID,914.999,VALID,0,VALID,100,VALID,0.0339617,VALID,19.1442,VALID,312,VALID,0.971989,
2006-03-25, 02:23:00,VALID,914.982,VALID,0,VALID,100,VALID,-0.0679233,VALID,20.2462,VALID,17,VALID,1.36626,
2006-03-25, 02:24:00,VALID,914.962,VALID,0,VALID,100,VALID,-0.700628,VALID,19.4614,VALID,35,VALID,1.28622,
2006-03-25, 02:25:00,VALID,914.957,VALID,0,VALID,100,VALID,-0.850314,VALID,19.7866,VALID,19,VALID,1.53023,
2006-03-25, 02:26:00,VALID,914.944,VALID,0,VALID,100,VALID,-0.101885,VALID,19.4201,VALID,17,VALID,1.2908,
2006-03-25, 02:27:00,VALID,914.966,VALID,0,VALID,100,VALID,-0.101885,VALID,19.5552,VALID,15,VALID,1.90044,
2006-03-25, 02:28:00,VALID,914.985,VALID,0.2,VALID,100,VALID,-0.0509425,VALID,19.5903,VALID,285,VALID,0.703869,
2006-03-25, 02:29:00,VALID,914.963,VALID,0,VALID,100,VALID,-0.101885,VALID,18.0988,VALID,154,VALID,0.884084,
2006-03-25, 02:30:00,VALID,914.937,VALID,0,VALID,100,VALID,-0.101885,VALID,19.39,VALID,118,VALID,0.764323,
2006-03-25, 02:31:00,VALID,914.898,VALID,0,VALID,100,VALID,-0.0849042,VALID,19.2731,VALID,355,VALID,0.622396,
2006-03-25, 02:32:00,VALID,914.861,VALID,0,VALID,100,VALID,0.0169808,VALID,19.8023,VALID,27,VALID,1.16886,
2006-03-25, 02:33:00,VALID,914.847,VALID,0,VALID,100,VALID,-0.0169808,VALID,19.9266,VALID,315,VALID,1.00746,
2006-03-25, 02:34:00,VALID,914.895,VALID,0,VALID,100,VALID,-0.0849042,VALID,19.2567,VALID,223,VALID,0.400343,
2006-03-25, 02:35:00,VALID,914.931,VALID,0,VALID,100,VALID,-0.0849042,VALID,18.9292,VALID,171,VALID,0.0812872,
2006-03-25, 02:36:00,VALID,914.921,VALID,0,VALID,100,VALID,-0.0849042,VALID,19.3104,VALID,113,VALID,0.312686,
2006-03-25, 02:37:00,VALID,914.897,VALID,0,VALID,100,VALID,-0.0849042,VALID,19.8988,VALID,359,VALID,0.684659,
2006-03-25, 02:38:00,VALID,914.884,VALID,0,VALID,100,VALID,0.0169808,VALID,19.9999,VALID,358,VALID,0.56936,
2006-03-25, 02:39:00,VALID,914.869,VALID,0,VALID,100,VALID,-0.516981,VALID,20.1674,VALID,19,VALID,1.01621,
2006-03-25, 02:40:00,VALID,914.861,VALID,0,VALID,100,VALID,-0.0509425,VALID,19.4368,VALID,25,VALID,0.77907,
2006-03-25, 02:41:00,VALID,914.831,VALID,0,VALID,100,VALID,-0.0679233,VALID,19.7194,VALID,37,VALID,0.418478,
2006-03-25, 02:42:00,VALID,914.805,VALID,0,VALID,100,VALID,-0.0509425,VALID,19.6244,VALID,57,VALID,0.362723,
2006-03-25, 02:43:00,VALID,914.807,VALID,0,VALID,100,VALID,-0.0679233,VALID,20.0556,VALID,322,VALID,0.291061,
2006-03-25, 02:44:00,VALID,914.796,VALID,0,VALID,100,VALID,-0.101885,VALID,19.3819,VALID,181,VALID,0.727095,
2006-03-25, 02:45:00,VALID,914.787,VALID,0,VALID,100,VALID,-0.0679233,VALID,18.8306,VALID,199,VALID,0.305233,
2006-03-25, 02:46:00,VALID,914.798,VALID,0,VALID,100,VALID,0,VALID,19.3527,VALID,76,VALID,0.411523,
2006-03-25, 02:47:00,VALID,914.799,VALID,0,VALID,100,VALID,-0.0339617,VALID,19.5554,VALID,5,VALID,0.0561756,
2006-03-25, 02:48:00,VALID,914.765,VALID,0,VALID,100,VALID,-0.0849042,VALID,20.2038,VALID,69,VALID,0.362847,
2006-03-25, 02:49:00,VALID,914.758,VALID,0,VALID,100,VALID,-0.0679233,VALID,19.9254,VALID,335,VALID,0.674419,
2006-03-25, 02:50:00,VALID,914.779,VALID,0,VALID,100,VALID,-0.0169808,VALID,20.027,VALID,10,VALID,0.63548,
2006-03-25, 02:51:00,VALID,914.769,VALID,0,VALID,100,VALID,0.0169808,VALID,19.0918,VALID,136,VALID,0.287427,
2006-03-25, 02:52:00,VALID,914.729,VALID,0,VALID,100,VALID,0,VALID,19.7957,VALID,30,VALID,0.726563,
2006-03-25, 02:53:00,VALID,914.721,VALID,0,VALID,100,VALID,-0.0169808,VALID,19.9419,VALID,346,VALID,0.594308,
2006-03-25, 02:54:00,VALID,914.717,VALID,0,VALID,100,VALID,-0.533962,VALID,19.5573,VALID,17,VALID,0.590774,
2006-03-25, 02:55:00,VALID,914.692,VALID,0,VALID,100,VALID,-0.0339617,VALID,19.6201,VALID,16,VALID,0.762847,
2006-03-25, 02:56:00,VALID,914.698,VALID,0,VALID,100,VALID,0,VALID,19.2843,VALID,35,VALID,0.151843,
2006-03-25, 02:57:00,VALID,914.69,VALID,0,VALID,100,VALID,0,VALID,19.024,VALID,333,VALID,0.330221,
2006-03-25, 02:58:00,VALID,914.66,VALID,0,VALID,100,VALID,0,VALID,18.2067,VALID,33,VALID,0.967297,
2006-03-25, 02:59:00,VALID,914.655,VALID,0,VALID,100,VALID,0,VALID,19.435,VALID,103,VALID,0.163021,
2006-03-25, 03:00:00,VALID,914.648,VALID,0,VALID,100,VALID,0.0169808,VALID,20.45,VALID,41,VALID,0.457508,
2006-03-25, 03:01:00,VALID,914.635,VALID,0,VALID,100,VALID,0,VALID,18.6777,VALID,360,VALID,1.29668,
2006-03-25, 03:02:00,VALID,914.6,VALID,0,VALID,100,VALID,0,VALID,18.6998,VALID,19,VALID,1.85296,
2006-03-25, 03:03:00,VALID,914.581,VALID,0,VALID,100,VALID,0,VALID,19.3896,VALID,22,VALID,1.20313,
2006-03-25, 03:04:00,VALID,914.545,VALID,0,VALID,100,VALID,-0.0339617,VALID,18.9096,VALID,296,VALID,1.14601,
2006-03-25, 03:05:00,VALID,914.552,VALID,0,VALID,100,VALID,0,VALID,18.9564,VALID,19,VALID,0.635719,
2006-03-25, 03:06:00,VALID,914.537,VALID,0,VALID,100,VALID,0.0169808,VALID,19.816,VALID,15,VALID,0.108842,
2006-03-25, 03:07:00,VALID,914.513,VALID,0,VALID,100,VALID,-0.0169808,VALID,18.9205,VALID,8,VALID,0.639672,
2006-03-25, 03:08:00,VALID,914.479,VALID,0,VALID,100,VALID,0,VALID,19.0795,VALID,64,VALID,0.517857,
2006-03-25, 03:09:00,VALID,914.433,VALID,0,VALID,100,VALID,-0.666667,VALID,20.1801,VALID,19,VALID,1.89286,
2006-03-25, 03:10:00,VALID,914.432,VALID,0,VALID,100,VALID,-0.850314,VALID,20.042,VALID,24,VALID,2.12607,
2006-03-25, 03:11:00,VALID,914.385,VALID,0,VALID,100,VALID,-0.101885,VALID,18.844,VALID,12,VALID,1.61365,
2006-03-25, 03:12:00,VALID,914.379,VALID,0,VALID,100,VALID,-0.101885,VALID,18.9238,VALID,25,VALID,2.44822,
2006-03-25, 03:13:00,VALID,914.379,VALID,0,VALID,100,VALID,-0.101885,VALID,18.1882,VALID,22,VALID,2.22236,
2006-03-25, 03:14:00,VALID,914.362,VALID,0,VALID,100,VALID,-0.101885,VALID,18.9392,VALID,29,VALID,1.06079,
2006-03-25, 03:15:00,VALID,914.367,VALID,0,VALID,100,VALID,-0.0679233,VALID,18.6825,VALID,22,VALID,1.00614,
2006-03-25, 03:16:00,VALID,914.368,VALID,0,VALID,100,VALID,-0.0849042,VALID,19.813,VALID,19,VALID,0.669695,
2006-03-25, 03:17:00,VALID,914.358,VALID,0,VALID,100,VALID,0.0169808,VALID,20.1738,VALID,343,VALID,0.149528,
2006-03-25, 03:18:00,VALID,914.332,VALID,0,VALID,100,VALID,0,VALID,19.1501,VALID,35,VALID,1.5028,
2006-03-25, 03:19:00,VALID,914.308,VALID,0,VALID,100,VALID,0.0339617,VALID,19.2195,VALID,20,VALID,1.43677,
2006-03-25, 03:20:00,VALID,914.275,VALID,0,VALID,100,VALID,-0.0169808,VALID,19.0274,VALID,26,VALID,1.66708,
2006-03-25, 03:21:00,VALID,914.268,VALID,0,VALID,100,VALID,-0.0679233,VALID,18.9648,VALID,15,VALID,1.89487,
2006-03-25, 03:22:00,VALID,914.265,VALID,0,VALID,100,VALID,0.0169808,VALID,19.1613,VALID,22,VALID,1.02847,
2006-03-25, 03:23:00,VALID,914.221,VALID,0,VALID,100,VALID,0,VALID,19.2963,VALID,22,VALID,1.36142,
2006-03-25, 03:24:00,VALID,914.204,VALID,0,VALID,100,VALID,-0.550942,VALID,19.9701,VALID,20,VALID,1.88105,
2006-03-25, 03:25:00,VALID,914.237,VALID,0,VALID,100,VALID,-0.0679233,VALID,19.4216,VALID,358,VALID,0.944169,
2006-03-25, 03:26:00,VALID,914.237,VALID,0,VALID,100,VALID,-0.0509425,VALID,19.7786,VALID,356,VALID,1.00534,
2006-03-25, 03:27:00,VALID,914.241,VALID,0,VALID,100,VALID,-0.0509425,VALID,19.4094,VALID,20,VALID,1.64788,
2006-03-25, 03:28:00,VALID,914.24,VALID,0,VALID,100,VALID,-0.0849042,VALID,19.6994,VALID,10,VALID,0.970703,
2006-03-25, 03:29:00,VALID,914.232,VALID,0,VALID,100,VALID,-0.101885,VALID,19.7132,VALID,13,VALID,0.306868,
2006-03-25, 03:30:00,VALID,914.212,VALID,0,VALID,100,VALID,-0.0169808,VALID,19.4774,VALID,46,VALID,0.782986,
2006-03-25, 03:31:00,VALID,914.175,VALID,0,VALID,100,VALID,-0.0849042,VALID,19.4832,VALID,22,VALID,1.7833,
2006-03-25, 03:32:00,VALID,914.172,VALID,0,VALID,100,VALID,-0.0849042,VALID,19.4502,VALID,22,VALID,1.01669,
2006-03-25, 03:33:00,VALID,914.13,VALID,0,VALID,100,VALID,-0.0679233,VALID,19.7295,VALID,23,VALID,1.90739,
2006-03-25, 03:34:00,VALID,914.095,VALID,0,VALID,100,VALID,-0.0509425,VALID,19.604,VALID,25,VALID,1.82246,
2006-03-25, 03:35:00,VALID,914.089,VALID,0,VALID,100,VALID,-0.101885,VALID,19.7527,VALID,27,VALID,0.957031,
2006-03-25, 03:36:00,VALID,914.087,VALID,0,VALID,100,VALID,-0.0169808,VALID,19.4286,VALID,35,VALID,0.20694,
2006-03-25, 03:37:00,VALID,914.079,VALID,0,VALID,100,VALID,-0.0339617,VALID,19.2908,VALID,6,VALID,0.448583,
2006-03-25, 03:38:00,VALID,914.051,VALID,0,VALID,100,VALID,-0.0849042,VALID,18.9987,VALID,100,VALID,0.589286,
2006-03-25, 03:39:00,VALID,914.024,VALID,0,VALID,100,VALID,-0.700628,VALID,19.4437,VALID,233,VALID,0.563021,
2006-03-25, 03:40:00,VALID,914,VALID,0,VALID,100,VALID,-0.850314,VALID,18.8463,VALID,45,VALID,0.25558,
2006-03-25, 03:41:00,VALID,914.028,VALID,0,VALID,100,VALID,-0.101885,VALID,19.1381,VALID,230,VALID,0.786014,
2006-03-25, 03:42:00,VALID,914.007,VALID,0,VALID,100,VALID,-0.101885,VALID,18.5453,VALID,357,VALID,0.58133,
2006-03-25, 03:43:00,VALID,913.986,VALID,0,VALID,100,VALID,-0.101885,VALID,19.0531,VALID,26,VALID,1.43895,